This is the latest recevied weather packets stored in our database for station/object WX4ET. If no packets are shown the sender has not sent any weather packets the latest 10 day(s).
| Time | Temp. | Humidity | Pressure | Rain* | Wind** | Luminosity | Snow |
|---|---|---|---|---|---|---|---|
| 1777507147 | 21.67° C | 73% | 1005.2 hPa | 0 mm | - | 10 W/m² | - |
| 1777506845 | 21.67° C | 71% | 1005.2 hPa | 0 mm | - | 15 W/m² | - |
| 1777506541 | 21.67° C | 71% | 1005 hPa | 0 mm | - | 17 W/m² | - |
| 1777506236 | 22.22° C | 69% | 1005 hPa | 0 mm | - | 22 W/m² | - |
| 1777505934 | 22.78° C | 69% | 1004.9 hPa | 0 mm | - | 26 W/m² | - |
| 1777505629 | 22.78° C | 68% | 1004.9 hPa | 0 mm | - | 37 W/m² | - |
| 1777505327 | 22.78° C | 67% | 1004.8 hPa | 0 mm | - | 44 W/m² | - |
| 1777505023 | 22.78° C | 67% | 1004.8 hPa | 0 mm | - | 45 W/m² | - |
| 1777504720 | 23.33° C | 67% | 1004.8 hPa | 0 mm | - | 44 W/m² | - |
| 1777504418 | 22.78° C | 66% | 1004.8 hPa | 0 mm | - | 71 W/m² | - |
| 1777504112 | 23.33° C | 66% | 1004.9 hPa | 0 mm | - | 46 W/m² | - |
| 1777503808 | 23.33° C | 65% | 1004.8 hPa | 0 mm | - | 92 W/m² | - |
| 1777503505 | 23.33° C | 67% | 1004.7 hPa | 0 mm | - | 122 W/m² | - |
| 1777503201 | 22.78° C | 68% | 1004.6 hPa | 0 mm | - | 128 W/m² | - |
| 1777502898 | 23.33° C | 68% | 1004.5 hPa | 0 mm | - | 74 W/m² | - |
| 1777502596 | 23.33° C | 68% | 1004.4 hPa | 0 mm | - | 71 W/m² | - |
| 1777502293 | 23.89° C | 66% | 1004.3 hPa | 0 mm | - | 169 W/m² | - |
| 1777501989 | 23.89° C | 67% | 1004.5 hPa | 0 mm | - | 188 W/m² | - |
| 1777501686 | 24.44° C | 66% | 1004.3 hPa | 0 mm | - | 205 W/m² | - |
| 1777501384 | 24.44° C | 67% | 1004.2 hPa | 0 mm | - | 212 W/m² | - |
| 1777501081 | 23.33° C | 71% | 1004.2 hPa | 0 mm | - | 242 W/m² | - |
| 1777500779 | 22.78° C | 74% | 1004.3 hPa | 0 mm | - | 216 W/m² | - |
| 1777500476 | 22.78° C | 81% | 1004.4 hPa | 0 mm | - | 127 W/m² | - |
| 1777500171 | 22.78° C | 80% | 1004.1 hPa | 0 mm | - | 50 W/m² | - |
| 1777499869 | 22.78° C | 79% | 1004 hPa | 0 mm | - | 36 W/m² | - |
* Rain latest hour (hover to see other rain measurements)
** Current wind speed in m/s (hover to see current wind gust speed)